Weather History for V.C. Bird, Antigua

Change the Weather History Date:

Saturday, November 24, 2012

  Actual Average Record
Temperature  
Mean Temperature 80 °F -  
Max Temperature 86 °F 82 °F 89 °F (1997)
Min Temperature 73 °F 73 °F 73 °F (1996)
Cooling Degree Days 14    
Growing Degree Days 30 (Base 50)    
Moisture  
Dew Point 74 °F    
Average Humidity 83    
Maximum Humidity 94    
Minimum Humidity 62    
Precipitation  
Precipitation 0.20 in - - ()
Sea Level Pressure  
Sea Level Pressure 29.92 in    
Wind  
Wind Speed 2 mph ()    
Max Wind Speed 7 mph    
Max Gust Speed -    
Visibility 9.4 miles    
Events Rain    
Averages and records for this station are not official NWS values.
T = Trace of Precipitation, MM = Missing Value Source: Averaged Metar Reports

Daily Weather History Graph

Daily Weather History Graph

Search for Another Location

Airport:

Trip Planner

Search our weather history database for the weather conditions in past years. The results will help you decide how hot, cold, wet, or windy it might be!

Date:

Astronomy

Nov. 24, 2012 Rise Set
Actual Time 6:16 AM AST 5:31 PM AST
Civil Twilight 5:53 AM AST 5:54 PM AST
Nautical Twilight 5:27 AM AST 6:20 PM AST
Astronomical Twilight 5:00 AM AST 6:47 PM AST
Moon 2:51 PM AST (11/24) 2:54 AM AST (11/24)
Length of Visible Light 12h 00m
Length of Day
11h 14m
Waxing Gibbous, 86% of the Moon is Illuminated
Nov 24
Waxing Gibbous
Nov 28
Full
Dec 6
Last Quarter
Dec 13
New
Dec 20
First Quarter

Hourly Weather History & Observations

Time (AST) Temp. Heat Index Dew Point Humidity Pressure Visibility Wind Dir Wind Speed Gust Speed Precip Events Conditions
1:00 AM 75.2 °F - 73.4 °F 94% 29.89 in 6.2 mi Variable 1.2 mph - N/A   Scattered Clouds
2:00 AM 76 °F - 73 °F 88% 29.90 in 19 mi 2.3 mph - -   Partly Cloudy
2:00 AM 75.2 °F - 73.4 °F 94% 29.89 in 6.2 mi Variable 2.3 mph - N/A   Partly Cloudy
3:00 AM 75.2 °F - 73.4 °F 94% 29.89 in 6.2 mi Variable 1.2 mph - N/A   Partly Cloudy
4:00 AM 75.2 °F - 73.4 °F 94% 29.89 in 6.2 mi Calm Calm - N/A   Partly Cloudy
5:00 AM 75 °F - 73 °F 92% 29.90 in 19 mi Calm Calm - -   Scattered Clouds
5:00 AM 75.2 °F - 73.4 °F 94% 29.89 in 6.2 mi Calm Calm - N/A   Partly Cloudy
6:00 AM 73.4 °F - 71.6 °F 94% 29.89 in 6.2 mi Calm Calm - N/A   Partly Cloudy
7:00 AM 75.2 °F - 73.4 °F 94% 29.92 in 6.2 mi Calm Calm - N/A   Partly Cloudy
8:00 AM 80 °F - 75 °F 81% 29.95 in 19 mi Calm Calm - -   Scattered Clouds
8:00 AM 80.6 °F 86.2 °F 75.2 °F 84% 29.95 in 6.2 mi Calm Calm - N/A   Partly Cloudy
9:00 AM 86.0 °F 95.1 °F 75.2 °F 70% 29.95 in 6.2 mi Variable 2.3 mph - N/A   Scattered Clouds
10:00 AM 80.6 °F 85.4 °F 73.4 °F 79% 29.98 in 6.2 mi SSE 4.6 mph - N/A Rain Light Rain Showers
11:00 AM 78 °F - 73 °F 82% 29.99 in 15 mi 2.3 mph - - Rain Light Rain
11:00 AM 77.0 °F - 73.4 °F 89% 29.98 in 6.2 mi Variable 2.3 mph - N/A Rain Light Rain
12:00 PM 78.8 °F - 73.4 °F 83% 29.95 in 6.2 mi Variable 2.3 mph - N/A Rain Light Rain
1:00 PM 84.2 °F 90.9 °F 73.4 °F 70% 29.92 in 6.2 mi Calm Calm - N/A   Scattered Clouds
2:00 PM 85 °F - 74 °F 62% 29.91 in 19 mi ESE 6.9 mph - -   Partly Cloudy
2:00 PM 84.2 °F 90.9 °F 73.4 °F 70% 29.89 in 6.2 mi ESE 6.9 mph - N/A   Partly Cloudy
3:00 PM 84.2 °F 90.9 °F 73.4 °F 70% 29.89 in 6.2 mi NNE 4.6 mph - N/A   Scattered Clouds
4:00 PM 82.4 °F 88.2 °F 73.4 °F 74% 29.89 in 6.2 mi ENE 3.5 mph - N/A   Scattered Clouds
5:00 PM 82 °F - 74 °F 71% 29.91 in 19 mi 2.3 mph - -   Scattered Clouds
5:00 PM 82.4 °F 88.2 °F 73.4 °F 74% 29.89 in 6.2 mi Variable 2.3 mph - N/A   Partly Cloudy
6:00 PM 78.8 °F - 73.4 °F 83% 29.89 in 6.2 mi Variable 2.3 mph - N/A   Partly Cloudy
7:00 PM 78.8 °F - 73.4 °F 83% 29.92 in 6.2 mi Variable 2.3 mph - N/A   Partly Cloudy
8:00 PM 78 °F - 74 °F 82% 29.94 in 19 mi 2.3 mph - -   Partly Cloudy
8:00 PM 78.8 °F - 73.4 °F 83% 29.92 in 6.2 mi Variable 2.3 mph - N/A   Scattered Clouds
9:00 PM 78.8 °F - 73.4 °F 83% 29.95 in 6.2 mi SE 6.9 mph - N/A Rain Light Rain Showers
10:00 PM 77.0 °F - 73.4 °F 89% 29.98 in 6.2 mi Calm Calm - N/A   Mostly Cloudy
11:00 PM 77 °F - 74 °F 87% 29.98 in 19 mi Calm Calm - -   Partly Cloudy
11:00 PM 77.0 °F - 73.4 °F 89% 29.98 in 6.2 mi Calm Calm - N/A   Scattered Clouds